sat.trackr.live / text

‹ back to catalog

STARLINK-36894

NORAD 67972 · 2026-038M

PAYLOAD ACTIVE UNKNOWN

§ Identity

Operator
Country
US
Launch date
2026-02-25
Launch site
AFWTR
Launch vehicle
Mass (kg)
RCS (m²)

Purposes: comms

External: N2YO · Heavens-Above · Gunter

§ Orbital elements

Epoch: 2026-09-19T23:28:49.691424Z

Period
93.91 min
Inclination
97.2851°
Eccentricity
0.0001685
Mean motion
15.33445212 rev/d
Perigee alt
464.4 km
Apogee alt
466.7 km
Semi-major
6,843.7 km
B*
3.9515e-4
RAAN
271.3306°
Arg perigee
93.4600°
Mean anomaly
266.6835°
Rev number
3,301

§ Raw data

STARLINK-368941 67972U 26038M   26262.97835291  .00012704  00000+0  39515-3 0  99912 67972  97.2851 271.3306 0001685  93.4600 266.6835 15.33445212 33012

JSON: /api/v1/satellites/67972 · /tle

For live sub-satellite position, see the globe view (requires WebGL).

§ Visibility from observer

Set your observer location to see the next 7 days of passes ≥ 10°. The values pass through the URL so the page stays shareable.

No JS? Fill the form by hand. The geolocation button needs JavaScript.